{"data":{"norad_id":68062,"epoch":"2026-05-25T03:00:12.864960Z","epoch_age_seconds":64140,"freshness":"FRESH","line1":"1 68062U 26041Y   26145.12514890 -.00006035  00000+0 -16757-3 0  9997","line2":"2 68062  53.1597  53.2337 0000926  82.9547 277.1560 15.34412573 13118","mean_motion":15.34412573,"eccentricity":9.26e-5,"inclination_deg":53.1597,"raan_deg":53.2337,"arg_perigee_deg":82.9547,"mean_anomaly_deg":277.156,"bstar":-0.00016757,"rev_number":1311,"period_min":93.846989091375,"perigee_km":462.0324125108,"apogee_km":463.29932920248,"semimajor_km":6840.8028708566,"source":"CELESTRAK","updated_at":"2026-05-25T13:38:21.815323Z"}}